Terminal Aerodrome Forecast
Issued by NWS Raleigh/Durham, NC

Home | Current Version | Previous Version | Text Only | Print | Product List | Glossary On
Versions: 1 2 3 4 5 6 7 8 9 10 11 12 13 14 15 16 17 18 19 20 21 22 23 24 25 26 27 28 29 30 31 32 33 34 35 36 37 38 39 40 41 42 43 44
000
FTUS42 KRAH 050545
TAFFAY
TAF
KFAY 050545Z 0506/0606 21008KT P6SM FEW060 SCT250 WS012/23040KT
      TEMPO 0507/0511 2SM BR SCT002
     FM051630 03012G20KT 4SM -RA BKN012 OVC030=

USA.gov is the U.S. government's official web portal to all federal, state and local government web resources and services.